"Period start","avg(HW err(1)/warn(2) (#))","avg(Visibility (m))","avg(Weather code (#))","avg(Precip intensity (mm/h))","min(HW err(1)/warn(2) (#))","max(HW err(1)/warn(2) (#))","std(HW err(1)/warn(2) (#))","med(HW err(1)/warn(2) (#))","min(Visibility (m))","max(Visibility (m))","std(Visibility (m))","med(Visibility (m))","min(Weather code (#))","max(Weather code (#))","std(Weather code (#))","med(Weather code (#))","min(Precip intensity (mm/h))","max(Precip intensity (mm/h))","std(Precip intensity (mm/h))","med(Precip intensity (mm/h))"
2016-06-15 00:00:00,2,47650,0,0.00,2,2,0,2,34436,50000,4666,50000,0,0,0,0,0.00,0.00,0.00,0.00
2016-06-15 00:10:00,2,45383,0,0.00,2,2,0,2,37759,50000,4797,47436,0,0,0,0,0.00,0.00,0.00,0.00
2016-06-15 00:20:00,2,36710,0,0.00,2,2,0,2,24625,50000,8250,35766,0,0,0,0,0.00,0.00,0.00,0.00
2016-06-15 00:30:00,2,41980,0,0.00,2,2,0,2,24836,50000,8686,45736,0,0,0,0,0.00,0.00,0.00,0.00
2016-06-15 00:40:00,2,43583,0,0.00,2,2,0,2,35566,50000,5356,44034,0,0,0,0,0.00,0.00,0.00,0.00
2016-06-15 00:50:00,2,42036,0,0.00,2,2,0,2,31819,50000,6035,41796,0,0,0,0,0.00,0.00,0.00,0.00
2016-06-15 01:00:00,2,37507,0,0.00,2,2,0,2,20889,50000,10506,37727,0,0,0,0,0.00,0.00,0.00,0.00
2016-06-15 01:10:00,2,33403,0,0.00,2,2,0,2,21226,47903,8700,30536,0,0,0,0,0.00,0.00,0.00,0.00
2016-06-15 01:20:00,2,41930,0,0.00,2,2,0,2,21694,50000,8960,46752,0,0,0,0,0.00,0.00,0.00,0.00
2016-06-15 01:30:00,2,36489,0,0.00,2,2,0,2,25373,50000,7385,37718,0,0,0,0,0.00,0.00,0.00,0.00
2016-06-15 01:40:00,2,48461,0,0.00,2,2,0,2,40879,50000,3144,50000,0,0,0,0,0.00,0.00,0.00,0.00
2016-06-15 01:50:00,2,41534,0,0.00,2,2,0,2,30951,50000,7033,41838,0,0,0,0,0.00,0.00,0.00,0.00
2016-06-15 02:00:00,2,41532,0,0.00,2,2,0,2,26872,50000,8878,45117,0,0,0,0,0.00,0.00,0.00,0.00
2016-06-15 02:10:00,2,33987,0,0.00,2,2,0,2,26197,46246,6098,33206,0,0,0,0,0.00,0.00,0.00,0.00
2016-06-15 02:20:00,2,43960,0,0.00,2,2,0,2,34377,50000,6134,45068,0,0,0,0,0.00,0.00,0.00,0.00
2016-06-15 02:30:00,2,36907,0,0.00,0,2,1,2,21087,50000,11381,36431,0,0,0,0,0.00,0.00,0.00,0.00
2016-06-15 02:40:00,2,42729,0,0.00,0,2,1,2,33305,50000,5739,45026,0,0,0,0,0.00,0.00,0.00,0.00
2016-06-15 02:50:00,2,39852,0,0.00,2,2,0,2,30707,50000,5607,40614,0,0,0,0,0.00,0.00,0.00,0.00
2016-06-15 03:00:00,2,41395,0,0.00,2,2,0,2,30412,50000,6583,41184,0,0,0,0,0.00,0.00,0.00,0.00
2016-06-15 03:10:00,2,43348,0,0.00,2,2,0,2,25956,50000,8266,47679,0,0,0,0,0.00,0.00,0.00,0.00
2016-06-15 03:20:00,2,43779,0,0.00,2,2,0,2,32322,50000,6525,46258,0,0,0,0,0.00,0.00,0.00,0.00
2016-06-15 03:30:00,2,49009,0,0.00,2,2,0,2,44111,50000,2026,50000,0,0,0,0,0.00,0.00,0.00,0.00
2016-06-15 03:40:00,2,47372,0,0.00,2,2,0,2,38484,50000,4189,50000,0,0,0,0,0.00,0.00,0.00,0.00
2016-06-15 03:50:00,2,46988,0,0.00,2,2,0,2,39616,50000,3742,48612,0,0,0,0,0.00,0.00,0.00,0.00
2016-06-15 04:00:00,2,48148,0,0.00,2,2,0,2,41457,50000,3060,50000,0,0,0,0,0.00,0.00,0.00,0.00
2016-06-15 04:10:00,2,50000,0,0.00,2,2,0,2,50000,50000,0,50000,0,0,0,0,0.00,0.00,0.00,0.00
2016-06-15 04:20:00,2,48042,0,0.00,2,2,0,2,39555,50000,3737,50000,0,0,0,0,0.00,0.00,0.00,0.00
2016-06-15 04:30:00,2,50000,0,0.00,2,2,0,2,50000,50000,0,50000,0,0,0,0,0.00,0.00,0.00,0.00
2016-06-15 04:40:00,2,48536,0,0.00,2,2,0,2,44633,50000,2015,49820,0,0,0,0,0.00,0.00,0.00,0.00
2016-06-15 04:50:00,2,49387,0,0.00,2,2,0,2,44098,50000,1764,50000,0,0,0,0,0.00,0.00,0.00,0.00
2016-06-15 05:00:00,2,49695,0,0.00,2,2,0,2,46946,50000,916,50000,0,0,0,0,0.00,0.00,0.00,0.00
2016-06-15 05:10:00,2,49277,0,0.00,2,2,0,2,46578,50000,1262,50000,0,0,0,0,0.00,0.00,0.00,0.00
2016-06-15 05:20:00,2,49848,0,0.00,2,2,0,2,48884,50000,343,50000,0,0,0,0,0.00,0.00,0.00,0.00
2016-06-15 05:30:00,2,49422,0,0.00,2,2,0,2,46920,50000,1138,50000,0,0,0,0,0.00,0.00,0.00,0.00
2016-06-15 05:40:00,2,49337,0,0.00,2,2,0,2,45984,50000,1334,50000,0,0,0,0,0.00,0.00,0.00,0.00
2016-06-15 05:50:00,2,49717,0,0.00,2,2,0,2,48974,50000,434,50000,0,0,0,0,0.00,0.00,0.00,0.00
2016-06-15 06:00:00,2,50000,0,0.00,2,2,0,2,50000,50000,0,50000,0,0,0,0,0.00,0.00,0.00,0.00
2016-06-15 06:10:00,2,49571,0,0.00,2,2,0,2,45712,50000,1286,50000,0,0,0,0,0.00,0.00,0.00,0.00
2016-06-15 06:20:00,2,49895,0,0.00,2,2,0,2,48949,50000,315,50000,0,0,0,0,0.00,0.00,0.00,0.00
2016-06-15 06:30:00,2,48225,0,0.00,2,2,0,2,43023,50000,2654,50000,0,0,0,0,0.00,0.00,0.00,0.00
2016-06-15 06:40:00,2,49806,0,0.00,2,2,0,2,48059,50000,582,50000,0,0,0,0,0.00,0.00,0.00,0.00
2016-06-15 06:50:00,2,48942,0,0.00,2,2,0,2,42701,50000,2299,50000,0,0,0,0,0.00,0.00,0.00,0.00
2016-06-15 07:00:00,2,47572,0,0.00,2,2,0,2,40426,50000,3602,50000,0,0,0,0,0.00,0.00,0.00,0.00
2016-06-15 07:10:00,2,49583,0,0.00,2,2,0,2,45834,50000,1250,50000,0,0,0,0,0.00,0.00,0.00,0.00
2016-06-15 07:20:00,2,47986,0,0.00,2,2,0,2,41313,50000,2521,48418,0,0,0,0,0.00,0.00,0.00,0.00
2016-06-15 07:30:00,2,49290,0,0.00,2,2,0,2,47051,50000,1110,50000,0,0,0,0,0.00,0.00,0.00,0.00
2016-06-15 07:40:00,2,49881,0,0.00,2,2,0,2,49097,50000,275,50000,0,0,0,0,0.00,0.00,0.00,0.00
2016-06-15 07:50:00,2,50000,0,0.00,2,2,0,2,50000,50000,0,50000,0,0,0,0,0.00,0.00,0.00,0.00
2016-06-15 08:00:00,2,48371,0,0.00,2,2,0,2,41133,50000,2701,50000,0,0,0,0,0.00,0.00,0.00,0.00
2016-06-15 08:10:00,2,49927,0,0.00,2,2,0,2,49368,50000,189,50000,0,0,0,0,0.00,0.00,0.00,0.00
2016-06-15 08:20:00,2,48286,0,0.00,2,2,0,2,43761,50000,2357,49837,0,0,0,0,0.00,0.00,0.00,0.00
2016-06-15 08:30:00,2,48891,0,0.00,2,2,0,2,43897,50000,1861,49727,0,0,0,0,0.00,0.00,0.00,0.00
2016-06-15 08:40:00,2,49999,0,0.00,2,2,0,2,49991,50000,3,50000,0,0,0,0,0.00,0.00,0.00,0.00
2016-06-15 08:50:00,2,49785,0,0.00,2,2,0,2,48123,50000,560,50000,0,0,0,0,0.00,0.00,0.00,0.00
2016-06-15 09:00:00,2,49037,0,0.00,2,2,0,2,46268,50000,1475,50000,0,0,0,0,0.00,0.00,0.00,0.00
2016-06-15 09:10:00,2,48317,0,0.00,2,2,0,2,44067,50000,2277,49672,0,0,0,0,0.00,0.00,0.00,0.00
2016-06-15 09:20:00,2,49981,0,0.00,2,2,0,2,49813,50000,56,50000,0,0,0,0,0.00,0.00,0.00,0.00
2016-06-15 09:30:00,2,50000,0,0.00,2,2,0,2,50000,50000,0,50000,0,0,0,0,0.00,0.00,0.00,0.00
2016-06-15 09:40:00,2,49286,0,0.00,2,2,0,2,47144,50000,909,49445,0,0,0,0,0.00,0.00,0.00,0.00
2016-06-15 09:50:00,2,49517,0,0.00,2,2,0,2,45663,50000,1293,50000,0,0,0,0,0.00,0.00,0.00,0.00
2016-06-15 10:00:00,2,49983,0,0.00,2,2,0,2,49831,50000,51,50000,0,0,0,0,0.00,0.00,0.00,0.00
2016-06-15 10:10:00,2,49455,0,0.00,2,2,0,2,47185,50000,944,50000,0,0,0,0,0.00,0.00,0.00,0.00
2016-06-15 10:20:00,2,49628,0,0.00,2,2,0,2,46967,50000,898,50000,0,0,0,0,0.00,0.00,0.00,0.00
2016-06-15 10:30:00,2,49872,0,0.00,2,2,0,2,48894,50000,328,50000,0,0,0,0,0.00,0.00,0.00,0.00
2016-06-15 10:40:00,2,49851,0,0.00,2,2,0,2,48514,50000,446,50000,0,0,0,0,0.00,0.00,0.00,0.00
2016-06-15 10:50:00,2,50000,0,0.00,2,2,0,2,50000,50000,0,50000,0,0,0,0,0.00,0.00,0.00,0.00
2016-06-15 11:00:00,2,49997,0,0.00,2,2,0,2,49972,50000,8,50000,0,0,0,0,0.00,0.00,0.00,0.00
2016-06-15 11:10:00,2,50000,0,0.00,2,2,0,2,50000,50000,0,50000,0,0,0,0,0.00,0.00,0.00,0.00
2016-06-15 11:20:00,2,49969,0,0.00,2,2,0,2,49692,50000,92,50000,0,0,0,0,0.00,0.00,0.00,0.00
2016-06-15 11:30:00,2,49997,0,0.00,2,2,0,2,49971,50000,9,50000,0,0,0,0,0.00,0.00,0.00,0.00
2016-06-15 11:40:00,2,50000,0,0.00,2,2,0,2,50000,50000,0,50000,0,0,0,0,0.00,0.00,0.00,0.00
2016-06-15 11:50:00,2,50000,0,0.00,2,2,0,2,50000,50000,0,50000,0,0,0,0,0.00,0.00,0.00,0.00
2016-06-15 12:00:00,2,49855,0,0.00,2,2,0,2,48551,50000,435,50000,0,0,0,0,0.00,0.00,0.00,0.00
2016-06-15 12:10:00,2,50000,0,0.00,2,2,0,2,50000,50000,0,50000,0,0,0,0,0.00,0.00,0.00,0.00
2016-06-15 12:20:00,2,50000,0,0.00,2,2,0,2,50000,50000,0,50000,0,0,0,0,0.00,0.00,0.00,0.00
2016-06-15 12:30:00,2,50000,0,0.00,2,2,0,2,50000,50000,0,50000,0,0,0,0,0.00,0.00,0.00,0.00
2016-06-15 12:40:00,2,49833,0,0.00,2,2,0,2,48330,50000,501,50000,0,0,0,0,0.00,0.00,0.00,0.00
2016-06-15 12:50:00,2,50000,0,0.00,2,2,0,2,50000,50000,0,50000,0,0,0,0,0.00,0.00,0.00,0.00
2016-06-15 13:00:00,2,49747,0,0.00,2,2,0,2,47471,50000,759,50000,0,0,0,0,0.00,0.00,0.00,0.00
2016-06-15 13:10:00,2,50000,0,0.00,2,2,0,2,50000,50000,0,50000,0,0,0,0,0.00,0.00,0.00,0.00
2016-06-15 13:20:00,2,50000,0,0.00,2,2,0,2,50000,50000,0,50000,0,0,0,0,0.00,0.00,0.00,0.00
2016-06-15 13:30:00,2,50000,0,0.00,2,2,0,2,50000,50000,0,50000,0,0,0,0,0.00,0.00,0.00,0.00
2016-06-15 13:40:00,2,49886,0,0.00,2,2,0,2,48855,50000,344,50000,0,0,0,0,0.00,0.00,0.00,0.00
2016-06-15 13:50:00,2,50000,0,0.00,2,2,0,2,50000,50000,0,50000,0,0,0,0,0.00,0.00,0.00,0.00
2016-06-15 14:00:00,2,49905,0,0.00,2,2,0,2,49046,50000,286,50000,0,0,0,0,0.00,0.00,0.00,0.00
2016-06-15 14:10:00,2,49745,0,0.00,2,2,0,2,48171,50000,567,50000,0,0,0,0,0.00,0.00,0.00,0.00
2016-06-15 14:20:00,2,44701,0,0.00,2,2,0,2,7658,50000,12749,50000,0,0,0,0,0.00,0.00,0.00,0.00
2016-06-15 14:30:00,2,4238,7,0.00,2,2,0,2,1389,8999,2374,4258,0,10,5,10,0.00,0.00,0.00,0.00
2016-06-15 14:40:00,2,7907,10,0.00,2,2,0,2,2433,19009,6571,4564,10,10,0,10,0.00,0.00,0.00,0.00
2016-06-15 14:50:00,2,1828,10,0.00,2,2,0,2,754,5138,1278,1334,10,10,0,10,0.00,0.00,0.00,0.00
2016-06-15 15:00:00,2,941,28,0.00,2,2,0,2,544,1583,332,888,10,34,9,32,0.00,0.00,0.00,0.00
2016-06-15 15:10:00,2,554,36,0.02,2,2,0,2,400,752,101,589,34,40,3,34,0.00,0.10,0.03,0.00
2016-06-15 15:20:00,2,736,76,0.03,2,2,0,2,449,1054,222,662,71,77,2,77,0.00,0.05,0.02,0.05
2016-06-15 15:30:00,2,795,76,0.02,2,2,0,2,514,1911,408,601,71,77,2,77,0.00,0.05,0.02,0.00
2016-06-15 15:40:00,2,714,77,0.03,2,2,0,2,495,1205,178,676,77,77,0,77,0.00,0.05,0.03,0.03
2016-06-15 15:50:00,2,672,77,0.01,2,2,0,2,492,959,146,632,77,77,0,77,0.00,0.05,0.02,0.00
2016-06-15 16:00:00,2,785,76,0.02,2,2,0,2,390,1871,434,634,71,77,2,77,0.00,0.05,0.02,0.00
2016-06-15 16:10:00,2,821,63,0.02,2,2,0,2,485,1375,328,722,33,77,20,77,0.00,0.05,0.02,0.00
2016-06-15 16:20:00,2,714,33,0.00,2,2,0,2,371,1471,354,539,33,33,0,33,0.00,0.00,0.00,0.00
2016-06-15 16:30:00,2,973,33,0.00,2,2,0,2,384,1775,458,864,33,33,0,33,0.00,0.00,0.00,0.00
2016-06-15 16:40:00,2,852,32,0.00,2,2,0,2,476,1893,429,660,30,33,1,33,0.00,0.00,0.00,0.00
2016-06-15 16:50:00,2,1098,33,0.00,2,2,0,2,521,2843,634,1062,32,33,0,33,0.00,0.00,0.00,0.00
2016-06-15 17:00:00,2,744,33,0.00,2,2,0,2,518,1077,156,726,33,33,0,33,0.00,0.00,0.00,0.00
2016-06-15 17:10:00,2,589,33,0.00,2,2,0,2,368,815,132,548,33,33,0,33,0.00,0.00,0.00,0.00
2016-06-15 17:20:00,2,861,33,0.00,2,2,0,2,431,1528,356,736,33,33,0,33,0.00,0.00,0.00,0.00
2016-06-15 17:30:00,2,1727,30,0.00,2,2,0,2,948,2478,543,1763,20,33,4,30,0.00,0.00,0.00,0.00
2016-06-15 17:40:00,2,663,28,0.00,2,2,0,2,473,1229,217,574,20,33,6,32,0.00,0.00,0.00,0.00
2016-06-15 17:50:00,2,1119,33,0.00,2,2,0,2,559,1608,358,1102,33,33,0,33,0.00,0.00,0.00,0.00
2016-06-15 18:00:00,2,1604,24,0.00,2,2,0,2,648,3426,915,1094,20,33,5,20,0.00,0.00,0.00,0.00
2016-06-15 18:10:00,2,2417,20,0.00,2,2,0,2,869,5997,1666,1616,20,20,0,20,0.00,0.00,0.00,0.00
2016-06-15 18:20:00,2,1184,26,0.00,2,2,0,2,435,2933,668,1080,20,33,6,25,0.00,0.00,0.00,0.00
2016-06-15 18:30:00,2,1933,35,0.02,2,2,0,2,262,9407,2952,408,30,40,4,33,0.00,0.10,0.03,0.00
2016-06-15 18:40:00,2,500,72,0.01,2,2,0,2,365,585,64,502,40,77,11,77,0.00,0.05,0.02,0.00
2016-06-15 18:50:00,2,347,77,0.06,2,2,0,2,293,435,42,346,77,77,0,77,0.00,0.10,0.03,0.05
2016-06-15 19:00:00,2,344,77,0.07,2,2,0,2,252,542,86,332,77,77,0,77,0.00,0.15,0.05,0.08
2016-06-15 19:10:00,2,576,75,0.00,2,2,0,2,400,804,114,587,71,77,3,77,0.00,0.00,0.00,0.00
2016-06-15 19:20:00,2,846,67,0.02,2,2,0,2,292,1964,623,473,33,77,17,77,0.00,0.15,0.05,0.00
2016-06-15 19:30:00,2,1445,29,0.00,2,2,0,2,718,4340,1031,1002,20,33,6,33,0.00,0.00,0.00,0.00
2016-06-15 19:40:00,2,451,55,0.02,2,2,0,2,312,1166,245,350,20,77,22,71,0.00,0.05,0.02,0.00
2016-06-15 19:50:00,2,368,77,0.06,2,2,0,2,264,482,59,364,77,77,0,77,0.00,0.10,0.04,0.05
2016-06-15 20:00:00,2,505,77,0.04,2,2,0,2,390,678,85,478,77,77,0,77,0.00,0.05,0.02,0.05
2016-06-15 20:10:00,2,484,77,0.06,2,2,0,2,378,689,90,490,77,77,0,77,0.00,0.15,0.04,0.05
2016-06-15 20:20:00,2,526,77,0.07,2,2,0,2,413,737,101,488,77,77,0,77,0.05,0.10,0.02,0.05
2016-06-15 20:30:00,2,600,77,0.02,2,2,0,2,419,867,137,544,77,77,0,77,0.00,0.05,0.02,0.00
2016-06-15 20:40:00,2,648,77,0.04,2,2,0,2,492,853,117,628,77,77,0,77,0.00,0.10,0.03,0.05
2016-06-15 20:50:00,2,500,77,0.06,2,2,0,2,394,574,55,510,77,77,0,77,0.05,0.10,0.02,0.05
2016-06-15 21:00:00,2,570,77,0.06,2,2,0,2,404,781,123,581,77,77,0,77,0.05,0.15,0.03,0.05
2016-06-15 21:10:00,2,671,77,0.04,2,2,0,2,506,901,118,624,77,77,0,77,0.00,0.05,0.02,0.05
2016-06-15 21:20:00,2,571,77,0.04,2,2,0,2,437,736,86,586,77,77,0,77,0.00,0.05,0.02,0.05
2016-06-15 21:30:00,2,644,77,0.03,2,2,0,2,460,896,137,604,77,77,0,77,0.00,0.05,0.03,0.03
2016-06-15 21:40:00,2,510,76,0.02,2,2,0,2,331,646,108,526,71,77,2,77,0.00,0.05,0.02,0.00
2016-06-15 21:50:00,2,459,76,0.03,2,2,0,2,366,640,75,440,71,77,2,77,0.00,0.05,0.02,0.05
2016-06-15 22:00:00,2,468,75,0.04,2,2,0,2,391,569,55,458,71,77,3,77,0.00,0.10,0.03,0.05
2016-06-15 22:10:00,2,535,76,0.02,2,2,0,2,462,642,53,518,71,77,2,77,0.00,0.05,0.02,0.00
2016-06-15 22:20:00,2,765,75,0.01,2,2,0,2,604,1140,173,712,71,77,3,77,0.00,0.05,0.02,0.00
2016-06-15 22:30:00,2,599,76,0.03,2,2,0,2,458,858,125,532,71,77,2,77,0.00,0.05,0.03,0.03
2016-06-15 22:40:00,2,1561,52,0.00,2,2,0,2,874,2230,382,1575,20,77,22,52,0.00,0.00,0.00,0.00
2016-06-15 22:50:00,2,1082,28,0.00,2,2,0,2,543,2061,492,926,20,32,5,32,0.00,0.00,0.00,0.00
2016-06-15 23:00:00,2,699,32,0.00,2,2,0,2,565,816,62,693,30,33,1,32,0.00,0.00,0.00,0.00
2016-06-15 23:10:00,2,1831,32,0.00,2,2,0,2,784,3514,828,1678,30,33,1,32,0.00,0.00,0.00,0.00
2016-06-15 23:20:00,2,2268,20,0.00,2,2,0,2,1001,5767,1319,1797,20,20,0,20,0.00,0.00,0.00,0.00
2016-06-15 23:30:00,2,926,25,0.00,2,2,0,2,533,1664,361,834,20,33,6,20,0.00,0.00,0.00,0.00
2016-06-15 23:40:00,2,1201,33,0.00,2,2,0,2,692,2264,517,1087,30,33,1,33,0.00,0.00,0.00,0.00
2016-06-15 23:50:00,2,1964,22,0.00,2,2,0,2,875,2779,607,2169,20,30,4,20,0.00,0.00,0.00,0.00
